Other Surface Observations
Issued by NWS

Home | Current Version | Previous Version | Text Only | Print | Product List | Glossary On
Versions: 1 2 3 4 5 6 7 8 9 10 11 12 13 14 15 16 17 18 19 20 21 22 23 24 25 26 27 28 29 30 31 32 33 34 35 36 37 38 39 40 41 42 43 44 45 46 47 48 49 50
000
SXUS52 KTAE 020518
OSOTAE
OSOTAE
North Florida/South Alabama/Southwest Georgia Weather Roundup
National Weather Service Tallahassee Florida
100 AM EDT TUE SEP 02 2014

Note: "fair" indicates few or no clouds below 12,000 feet with no
significant weather and/or obstructions to visibility.

!FLZ017-115-028-034-025-020600
...North Florida...

CITY           SKY/WX    TMP DP  RH WIND       PRES   REMARKS
TALLAHASSEE    CLEAR     77  74  90 CALM      30.09F
APALACHICOLA   CLEAR     76  74  93 CALM      30.08F
PERRY          MOCLDY    77  73  88 NE7       30.12R
CROSS CITY       N/A     79  76  90 N3        30.10F
HOMERVILLE     FAIR      79  75  89 CALM      30.13R
JACKSONVILLE   PTCLDY    79  75  87 W3        30.10F
$$

!FLZ112-006-005-002-011-020600
...Florida Panhandle...

CITY           SKY/WX    TMP DP  RH WIND       PRES   REMARKS
MARIANNA       CLEAR     78  73  84 CALM      30.08F
BONIFAY        FAIR      73  72  96 CALM      30.09F
PANAMA CITY NW FAIR      77  73  87 CALM      30.07F
TYNDALL AFB    CLEAR     78  78 100 E2        30.08F
TYND DRONE APT NOT AVBL
DE FUNIAK SPR  FAIR      75  73  95 S3        30.08F
EGLIN AFB      PTCLDY    83  76  79 CALM      30.06F HX  90
DESTIN         CLEAR     85  76  74 CALM      30.06F HX  94
HURLBURT       PTCLDY    83  72  68 N1        30.05F
CRESTVIEW      PTCLDY    74  72  93 CALM      30.08F
PENSACOLA      PTCLDY    80  76  87 S7        30.06F
$$

!ALZ063-066-020600
...South Alabama...

CITY           SKY/WX    TMP DP  RH WIND       PRES   REMARKS
DOTHAN         CLEAR     75  71  87 CALM      30.12F
OZARK CAIRNS   CLEAR     77  73  86 SE2       30.08F
FT RUCKER HELI CLEAR     75  71  87 CALM      30.07F
RUCKER HELI 3  FAIR      78  71  80 VRB1      30.10F
RUCKER HELI 2  FAIR      77  73  87 CALM      30.08F
FLORALA APT    CLEAR     78  73  84 CALM      30.09F
ANDALUSIA      CLEAR     78  73  84 CALM      30.07F
TROY           CLEAR     76  72  87 CALM      30.08F
EUFALA         FAIR      75  73  93 CALM      30.08F
MOBILE         MOCLDY    79  76  90 SE7       30.05F
$$

!GAZ120>161-020600
...Southwest and South Central Georgia...

CITY           SKY/WX    TMP DP  RH WIND       PRES   REMARKS
THOMASVILLE    FAIR      79  77  94 CALM      30.12S
BAINBRIDGE     CLEAR     81  75  83 CALM      30.10S
MOODY AFB      CLOUDY    73  73 100 CALM      30.11F THUNDER
VALDOSTA       LGT RAIN  74  72  93 CALM      30.11F
MOULTRIE       MOCLDY    79  73  83 E5        30.13R
BLAKELY        CLEAR     79  73  83 CALM        N/A
ALBANY         CLEAR     78  72  81 SW3       30.11S
TIFTON         FAIR      76  74  93 NE6       30.13S
FITZGERALD     FAIR      77  74  91 SE7       30.16R THUNDER
CORDELE        FAIR      80  73  77 SE5       30.11S
AMERICUS       FAIR      77  70  78 CALM      30.10F
$$

!GMZ750-755-770-775-020600
...Coastal and Buoy Obs...

STATION/POSITION TIME  TEMP    WIND        PRES    VSBY  WAVE
                       AIR SEA DIR/SP/G                  HT/PER
                 (UTC) (F)     (DEG/KT/KT) (MB)    (MI)  (FT/S)
KEATON BEACH     0500   80      30/  4/  5 1019.4S
CEDAR KEY        0500   82      80/  2/  2 1019.7S
C TOWER          0500   83      70/  1/  2 1018.6F
APALACHICOLA BUO 0500   85 86   50/  4/  6 1018.7F         2/ 8
PANAMA CITY BUOY 0435   84 86  120/  4/  6 1018.5S         3/ 6
MOBILE BUOY      0443   84 85  150/  8/ 10 1018.1F
ORANGE BCH AL BU 0500   85 86  170/ 12/ 12 1017.7F         3/ 8
$$



USA.gov is the U.S. government's official web portal to all federal, state and local government web resources and services.